| time (UTC) | temp F | wind direction | speed knots | gust knots | rain 1hr in | rain 24hr in | rain mn in | humidity % | barometer mb |
| 20260506073015 | 41 | 360 | 0.0 | 0.0 | 0.00 | 0.00 | 0.00 | 88 | 1006.8 |
| 20260506071515 | 41 | 360 | 0.0 | 0.0 | 0.00 | 0.00 | 0.00 | 88 | 1006.7 |
| 20260506061516 | 41 | 360 | 0.0 | 1.7 | 0.00 | 0.00 | 0.00 | 89 | 1007.0 |
| 20260506044515 | 41 | 360 | 0.0 | 0.0 | 0.00 | 0.00 | 0.00 | 86 | 1007.6 |
| 20260506043015 | 41 | 360 | 0.0 | 0.0 | 0.00 | 0.00 | 0.00 | 86 | 1007.5 |
| 20260506041516 | 41 | 360 | 0.0 | 0.0 | 0.00 | 0.00 | 0.00 | 83 | 1007.5 |
| 20260506040015 | 42 | 360 | 0.0 | 0.0 | 0.00 | 0.00 | 0.00 | 83 | 1007.4 |
| 20260506034515 | 42 | 360 | 0.0 | 0.0 | 0.00 | 0.00 | 0.00 | 84 | 1007.5 |
| 20260506033016 | 42 | 360 | 0.0 | 0.0 | 0.00 | 0.00 | 0.00 | 82 | 1007.3 |
| 20260506031515 | 42 | 360 | 0.0 | 0.9 | 0.00 | 0.00 | 0.00 | 82 | 1007.4 |
| 20260506030026 | 42 | 360 | 0.0 | 0.0 | 0.00 | 0.00 | 0.00 | 80 | 1007.3 |
| 20260506024533 | 42 | 360 | 0.0 | 0.0 | 0.00 | 0.00 | 0.00 | 79 | 1007.5 |
| 20260506023016 | 42 | 360 | 0.0 | 0.0 | 0.00 | 0.00 | 0.00 | 78 | 1007.6 |
| 20260506021515 | 42 | 360 | 0.0 | 0.0 | 0.00 | 0.00 | 0.00 | 77 | 1007.6 |
| 20260506020015 | 43 | 360 | 0.0 | 0.0 | 0.00 | 0.00 | 0.00 | 76 | 1007.5 |
| 20260506014518 | 43 | 360 | 0.0 | 0.0 | 0.00 | 0.00 | 0.00 | 76 | 1007.5 |
| 20260506013016 | 43 | 360 | 0.0 | 0.0 | 0.00 | 0.00 | 0.00 | 75 | 1007.2 |
| 20260506011515 | 43 | 360 | 0.0 | 0.0 | 0.00 | 0.00 | 0.00 | 76 | 1006.8 |
| 20260506010017 | 43 | 360 | 0.0 | 0.0 | 0.00 | 0.00 | 0.00 | 74 | 1006.6 |
| 20260506004515 | 44 | 360 | 0.0 | 0.9 | 0.00 | 0.00 | 0.00 | 74 | 1006.4 |
| 20260506003017 | 44 | 360 | 0.0 | 1.7 | 0.00 | 0.00 | 0.00 | 74 | 1006.3 |
| 20260506001518 | 44 | 360 | 0.0 | 3.5 | 0.00 | 0.00 | 0.00 | 77 | 1006.3 |
| 20260506000015 | 44 | 360 | 2.6 | 4.3 | 0.00 | 0.00 | 0.00 | 76 | 1006.2 |
| 20260505234526 | 44 | 360 | 1.7 | 5.2 | 0.00 | 0.00 | 0.00 | 77 | 1006.1 |
| 20260505233019 | 45 | 360 | 2.6 | 3.5 | 0.00 | 0.00 | 0.00 | 77 | 1005.8 |
| 20260505231516 | 45 | 360 | 1.7 | 3.5 | 0.00 | 0.00 | 0.00 | 75 | 1005.9 |
| 20260505230033 | 47 | 360 | 1.7 | 4.3 | 0.00 | 0.00 | 0.00 | 71 | 1005.9 |
| 20260505224516 | 47 | 360 | 1.7 | 4.3 | 0.00 | 0.00 | 0.00 | 69 | 1006.0 |
| 20260505223015 | 48 | 360 | 1.7 | 4.3 | 0.00 | 0.00 | 0.00 | 68 | 1006.1 |
| 20260505221516 | 48 | 360 | 0.0 | 3.5 | 0.00 | 0.00 | 0.00 | 68 | 1005.8 |
| 20260505220019 | 48 | 360 | 0.0 | 3.5 | 0.00 | 0.00 | 0.00 | 66 | 1005.9 |
| 20260505214516 | 47 | 360 | 0.9 | 4.3 | 0.00 | 0.00 | 0.00 | 69 | 1005.7 |
| 20260505213015 | 47 | 360 | 0.9 | 5.2 | 0.00 | 0.00 | 0.00 | 70 | 1005.7 |
| 20260505211516 | 46 | 360 | 0.9 | 4.3 | 0.00 | 0.00 | 0.00 | 72 | 1005.5 |
| 20260505210016 | 46 | 360 | 3.5 | 7.0 | 0.00 | 0.00 | 0.00 | 72 | 1005.7 |
| 20260505204515 | 46 | 360 | 4.3 | 7.0 | 0.00 | 0.01 | 0.00 | 68 | 1005.5 |
| 20260505203019 | 46 | 360 | 1.7 | 4.3 | 0.00 | 0.01 | 0.00 | 69 | 1005.6 |
| 20260505201516 | 46 | 360 | 1.7 | 7.0 | 0.00 | 0.01 | 0.00 | 71 | 1005.3 |
| 20260505200018 | 46 | 360 | 4.3 | 9.6 | 0.00 | 0.01 | 0.00 | 69 | 1005.2 |
| 20260505194516 | 46 | 360 | 4.3 | 9.6 | 0.00 | 0.01 | 0.00 | 70 | 1005.0 |
| 20260505193016 | 46 | 360 | 2.6 | 7.8 | 0.00 | 0.01 | 0.00 | 71 | 1004.6 |
| 20260505191516 | 46 | 360 | 6.1 | 9.6 | 0.00 | 0.01 | 0.00 | 70 | 1004.8 |
| 20260505190016 | 46 | 360 | 3.5 | 11.3 | 0.00 | 0.01 | 0.00 | 72 | 1004.4 |
| 20260505184516 | 46 | 360 | 7.8 | 10.4 | 0.00 | 0.01 | 0.00 | 71 | 1004.1 |
| 20260505183017 | 46 | 360 | 7.0 | 9.6 | 0.00 | 0.01 | 0.00 | 72 | 1004.0 |
| 20260505181516 | 46 | 360 | 6.1 | 9.6 | 0.00 | 0.01 | 0.00 | 71 | 1003.9 |
| 20260505180037 | 46 | 360 | 7.8 | 10.4 | 0.00 | 0.01 | 0.00 | 72 | 1003.7 |
| 20260505174516 | 46 | 360 | 9.6 | 12.2 | 0.00 | 0.02 | 0.00 | 71 | 1003.7 |
| 20260505173017 | 45 | 360 | 7.0 | 10.4 | 0.00 | 0.02 | 0.00 | 72 | 1003.3 |
| 20260505171516 | 45 | 360 | 8.7 | 12.2 | 0.00 | 0.02 | 0.00 | 72 | 1003.1 |
| 20260505170020 | 45 | 360 | 8.7 | 11.3 | 0.00 | 0.02 | 0.00 | 72 | 1003.2 |
| 20260505164516 | 45 | 360 | 7.8 | 12.2 | 0.00 | 0.02 | 0.00 | 72 | 1002.9 |
| 20260505163017 | 46 | 360 | 9.6 | 14.8 | 0.00 | 0.02 | 0.00 | 71 | 1003.0 |
| 20260505161516 | 46 | 360 | 9.6 | 17.4 | 0.00 | 0.02 | 0.00 | 70 | 1003.0 |
| 20260505153016 | 47 | 360 | 9.6 | 15.6 | 0.00 | 0.03 | 0.00 | 72 | 1002.0 |
| 20260505151516 | 47 | 360 | 9.6 | 15.6 | 0.00 | 0.03 | 0.00 | 73 | 1001.7 |
| 20260505124517 | 47 | 360 | 5.2 | 10.4 | 0.00 | 0.05 | 0.00 | 85 | 999.3 |
| 20260505123028 | 47 | 360 | 3.5 | 9.6 | 0.00 | 0.05 | 0.00 | 85 | 998.8 |
| 20260505121516 | 48 | 360 | 2.6 | 9.6 | 0.00 | 0.05 | 0.00 | 85 | 998.7 |
| 20260505120023 | 48 | 360 | 2.6 | 8.7 | 0.00 | 0.05 | 0.00 | 86 | 998.1 |
| 20260505114517 | 49 | 360 | 7.0 | 11.3 | 0.00 | 0.06 | 0.00 | 86 | 997.7 |
| 20260505113017 | 51 | 360 | 5.2 | 13.9 | 0.00 | 0.06 | 0.00 | 85 | 997.8 |
| 20260505111520 | 53 | 360 | 9.6 | 13.0 | 0.00 | 0.06 | 0.00 | 82 | 997.3 |
| 20260505101530 | 59 | 232 | 1.7 | 4.3 | 0.00 | 0.07 | 0.00 | 80 | 995.5 |
| 20260505100039 | 59 | 235 | 1.7 | 4.3 | 0.00 | 0.07 | 0.00 | 80 | 995.5 |
| 20260505094516 | 59 | 229 | 0.9 | 4.3 | 0.00 | 0.08 | 0.00 | 80 | 995.5 |
| 20260505093022 | 59 | 232 | 0.9 | 4.3 | 0.00 | 0.08 | 0.00 | 80 | 995.4 |
| 20260505091519 | 59 | 232 | 0.9 | 3.5 | 0.00 | 0.08 | 0.00 | 79 | 995.2 |
| 20260505090017 | 59 | 232 | 0.0 | 1.7 | 0.00 | 0.08 | 0.00 | 78 | 995.3 |
| 20260505084517 | 59 | 230 | 0.0 | 3.5 | 0.00 | 0.09 | 0.00 | 78 | 995.2 |
| 20260505083018 | 59 | 232 | 0.0 | 5.2 | 0.00 | 0.09 | 0.00 | 78 | 995.5 |
| 20260505081517 | 60 | 238 | 0.0 | 3.5 | 0.00 | 0.09 | 0.00 | 74 | 996.0 |